Home > Weather > Sacramento > Past weeks

Flag for USA Past Weather in Sacramento, California, USA — Yesterday and Last 2 Weeks

Now
89 °F

Sunny.


Feels Like: 87 °F
Forecast: 65 / 107 °F
Wind: 12 mph from Southwest

Location: Sacramento Executive Airport

Current Time: Jul 28, 2016 at 9:06:41 PM

Latest Report: Jul 28, 2016 at 7:53 PM


Visibility: 10 mi

Pressure: 29.75 "Hg

Humidity: 29%

Dew Point: 53 °F

Location of SacramentoLocation

Past Weather in Sacramento — Graph

°F

Sacramento Temperature Yesterday

Maximum temperature yesterday: 103 °F (at 4:53 PM)
Minimum temperature yesterday: 70 °F (at 5:53 AM)
Average temperature yesterday: 83 °F

High & Low Weather Summary for the Past Weeks

 TemperatureHumidityPressure
High104 °F (Jul 26, 4:53 PM)87% (Jul 19, 5:53 AM)30.09 "Hg (Jul 19, 5:53 AM)
Low56 °F (Jul 19, 5:53 AM)9% (Jul 26, 4:53 PM)29.75 "Hg (Jul 28, 6:53 PM)
Average76 °F46%29.89 "Hg
* Reported Jul 13 7:53 PM — Jul 28 7:53 PM, Sacramento, Weather by CustomWeather, © 2016

Note: Actual official high and low records may vary slightly from our data, if they occured in-between our weather recording intervals... More about our weather records

Advertising

Sacramento Weather History for the Previous 24 Hours

Scroll right to see more
 ConditionsComfort  
Time TempWeatherWind HumidityBarometerVisibility
7:53 PM
Thu, Jul 28
89 °FSunny.12 mph29%29.75 "Hg10 mi
6:53 PM95 °FSunny.9 mph22%29.75 "Hg10 mi
5:53 PM98 °FSunny.8 mph16%29.75 "Hg10 mi
4:53 PM100 °FSunny.8 mph18%29.76 "Hg10 mi
3:53 PM100 °FSunny.No wind21%29.78 "Hg10 mi
2:53 PM98 °FSunny.7 mph20%29.80 "Hg10 mi
1:53 PM95 °FSunny.No wind22%29.82 "Hg10 mi
12:53 PM92 °FSunny.5 mph29%29.84 "Hg10 mi
11:53 AM87 °FSunny.6 mph36%29.86 "Hg10 mi
10:53 AM82 °FSunny.5 mph43%29.86 "Hg10 mi
9:53 AM76 °FSunny.No wind50%29.86 "Hg10 mi
8:53 AM71 °FSunny.No wind55%29.87 "Hg10 mi
7:53 AM67 °FSunny.No wind61%29.85 "Hg10 mi
6:53 AM67 °FClear.6 mph59%29.84 "Hg10 mi
5:53 AM67 °FClear.3 mph61%29.83 "Hg10 mi
4:53 AM67 °FClear.3 mph59%29.83 "Hg10 mi
3:53 AM69 °FClear.3 mph55%29.82 "Hg10 mi
2:53 AM71 °FClear.6 mph51%29.82 "Hg10 mi
1:53 AM71 °FClear.3 mph51%29.82 "Hg10 mi
12:53 AM71 °FClear.6 mph51%29.82 "Hg10 mi
11:53 PM
Wed, Jul 27
72 °FClear.6 mph52%29.83 "Hg10 mi
10:53 PM75 °FClear.6 mph47%29.82 "Hg10 mi
9:53 PM78 °FClear.7 mph42%29.81 "Hg10 mi
Weather by CustomWeather, © 2016

See weather overviewHow to use our weather pages